Weather History for Quincy, IL

Change the Weather History Date:

Thursday, May 23, 2013

  Actual Average Record
Temperature  
Mean Temperature 61 °F 65 °F  
Max Temperature 68 °F 75 °F 93 °F (1921)
Min Temperature 54 °F 55 °F 40 °F (1963)
Degree Days  
Heating Degree Days 4 3  
Month to date heating degree days 126 117  
Since 1 July heating degree days 5611 5547  
Cooling Degree Days 0 3  
Month to date cooling degree days 71 39  
Year to date cooling degree days 85 57  
Growing Degree Days 12 (Base 50)    
Moisture  
Dew Point 52 °F    
Average Humidity 71    
Maximum Humidity 86    
Minimum Humidity 55    
Precipitation  
Precipitation 0.01 in 0.15 in 1.16 in (1966)
Month to date precipitation 4.31 3.29  
Year to date precipitation 18.16 12.84  
Sea Level Pressure  
Sea Level Pressure 30.05 in    
Wind  
Wind Speed 10 mph (NNW)    
Max Wind Speed 21 mph    
Max Gust Speed 25 mph    
Visibility 9 miles    
Events Rain    
T = Trace of Precipitation, MM = Missing Value Source: NWS Daily Summary

Daily Weather History Graph

Daily Weather History Graph

Search for Another Location

Airport:

Trip Planner

Search our weather history database for the weather conditions in past years. The results will help you decide how hot, cold, wet, or windy it might be!

Date:

Astronomy

May. 23, 2013 Rise Set
Actual Time 5:43 AM CDT 8:20 PM CDT
Civil Twilight 5:11 AM CDT 8:52 PM CDT
Nautical Twilight 4:32 AM CDT 9:31 PM CDT
Astronomical Twilight 3:48 AM CDT 10:15 PM CDT
Moon 6:53 PM CDT (5/23) 4:28 AM CDT (5/23)
Length of Visible Light 15h 40m
Length of Day
14h 37m
Waxing Gibbous, 97% of the Moon is Illuminated
May 23
Waxing Gibbous
May 24
Full
May 31
Last Quarter
Jun 8
New
Jun 16
First Quarter

Hourly Weather History & Observations

Time (CDT) Temp. Dew Point Humidity Pressure Visibility Wind Dir Wind Speed Gust Speed Precip Events Conditions
12:54 AM 57.9 °F 48.9 °F 72% 29.86 in 10.0 mi WNW 11.5 mph - N/A   Partly Cloudy
1:54 AM 57.9 °F 50.0 °F 75% 29.86 in 10.0 mi West 8.1 mph - N/A   Overcast
2:54 AM 57.9 °F 50.0 °F 75% 29.86 in 10.0 mi West 10.4 mph - N/A   Mostly Cloudy
3:54 AM 57.0 °F 50.0 °F 77% 29.87 in 10.0 mi WNW 12.7 mph - N/A   Overcast
4:52 AM 57.2 °F 50.0 °F 77% 29.89 in 10.0 mi WNW 12.7 mph - N/A   Mostly Cloudy
4:54 AM 57.0 °F 50.0 °F 77% 29.89 in 10.0 mi West 11.5 mph - N/A   Mostly Cloudy
5:54 AM 57.0 °F 50.0 °F 77% 29.91 in 10.0 mi WNW 13.8 mph - N/A   Overcast
6:54 AM 57.0 °F 51.1 °F 81% 29.94 in 10.0 mi WNW 12.7 mph 19.6 mph N/A   Overcast
7:15 AM 55.4 °F 51.8 °F 88% 29.95 in 10.0 mi West 9.2 mph - N/A   Overcast
7:54 AM 57.0 °F 52.0 °F 83% 29.96 in 10.0 mi WNW 17.3 mph 23.0 mph N/A   Overcast
8:29 AM 57.2 °F 53.6 °F 88% 29.98 in 9.0 mi WNW 16.1 mph 24.2 mph N/A   Overcast
8:54 AM 57.0 °F 54.0 °F 89% 29.99 in 3.0 mi WNW 15.0 mph - N/A   Overcast
9:15 AM 57.2 °F 55.4 °F 94% 30.00 in 2.5 mi WNW 15.0 mph - N/A   Overcast
9:39 AM 57.2 °F 55.4 °F 94% 30.01 in 5.0 mi NW 15.0 mph 25.3 mph N/A   Overcast
9:51 AM 57.2 °F 55.4 °F 94% 30.02 in 1.8 mi NW 15.0 mph - 0.00 in Rain Light Rain
9:54 AM 57.9 °F 55.0 °F 90% 30.01 in 1.5 mi NW 16.1 mph - 0.00 in Rain Light Rain
10:27 AM 59.0 °F 57.2 °F 94% 30.03 in 3.0 mi NNW 15.0 mph - 0.01 in Rain Light Rain
10:43 AM 59.0 °F 55.4 °F 88% 30.03 in 9.0 mi North 13.8 mph - 0.01 in Rain Light Rain
10:54 AM 60.1 °F 55.0 °F 83% 30.03 in 10.0 mi North 16.1 mph - 0.01 in   Overcast
11:17 AM 57.2 °F 55.4 °F 94% 30.04 in 6.0 mi North 17.3 mph 24.2 mph 0.00 in Rain Light Rain
11:54 AM 59.0 °F 54.0 °F 83% 30.06 in 10.0 mi North 13.8 mph - 0.00 in Rain Light Rain
12:54 PM 60.1 °F 52.0 °F 75% 30.09 in 10.0 mi North 15.0 mph - 0.00 in   Overcast
1:51 PM 60.8 °F 53.6 °F 77% 30.12 in 10.0 mi North 11.5 mph - N/A   Overcast
1:54 PM 61.0 °F 52.0 °F 72% 30.12 in 10.0 mi North 11.5 mph - N/A   Overcast
2:08 PM 62.6 °F 51.8 °F 68% 30.12 in 10.0 mi North 12.7 mph 21.9 mph N/A   Overcast
2:41 PM 62.6 °F 51.8 °F 68% 30.13 in 10.0 mi North 13.8 mph - N/A   Overcast
2:54 PM 63.0 °F 53.1 °F 70% 30.13 in 10.0 mi North 9.2 mph - N/A   Overcast
3:54 PM 64.0 °F 52.0 °F 65% 30.14 in 10.0 mi NNW 6.9 mph - N/A   Overcast
4:09 PM 64.4 °F 51.8 °F 64% 30.14 in 10.0 mi NNE 10.4 mph - N/A   Overcast
4:16 PM 64.4 °F 51.8 °F 64% 30.14 in 10.0 mi North 10.4 mph - N/A   Overcast
4:54 PM 66.0 °F 52.0 °F 60% 30.14 in 10.0 mi NNE 12.7 mph - N/A   Mostly Cloudy
5:54 PM 68.0 °F 51.1 °F 55% 30.15 in 10.0 mi North 4.6 mph - N/A   Scattered Clouds
6:54 PM 66.0 °F 50.0 °F 56% 30.17 in 10.0 mi ENE 8.1 mph - N/A   Clear
7:54 PM 63.0 °F 52.0 °F 67% 30.17 in 10.0 mi NE 4.6 mph - N/A   Scattered Clouds
8:54 PM 60.1 °F 50.0 °F 69% 30.19 in 10.0 mi ENE 3.5 mph - N/A   Clear
9:54 PM 59.0 °F 50.0 °F 72% 30.20 in 10.0 mi East 4.6 mph - N/A   Clear
10:54 PM 55.9 °F 48.9 °F 77% 30.22 in 10.0 mi Calm Calm - N/A   Clear
11:54 PM 54.0 °F 48.0 °F 80% 30.25 in 10.0 mi SE 3.5 mph - N/A   Clear